TimeCET,TemperatureF,Dew PointF,Humidity,Sea Level PressureIn,VisibilityMPH,Wind Direction,Wind SpeedMPH,Gust SpeedMPH,PrecipitationIn,Events,Conditions,WindDirDegrees,DateUTC
12:00 AM,46.4,39.2,76,29.47,6.2,South,4.6,-,N/A,,Partly Cloudy,180,2012-10-31 23:00:00
5:30 AM,44.6,37.4,76,29.47,6.2,SE,8.1,-,N/A,,Partly Cloudy,140,2012-11-01 04:30:00
6:00 AM,42.8,37.4,81,29.47,6.2,Variable,1.2,-,N/A,,Partly Cloudy,0,2012-11-01 05:00:00
6:30 AM,41.0,37.4,87,29.47,6.2,Variable,2.3,-,N/A,,Partly Cloudy,0,2012-11-01 05:30:00
7:00 AM,42.8,37.4,81,29.47,6.2,SSE,3.5,-,N/A,,Scattered Clouds,150,2012-11-01 06:00:00
7:30 AM,42.8,39.2,87,29.47,6.2,Variable,1.2,-,N/A,,Scattered Clouds,0,2012-11-01 06:30:00
8:00 AM,44.6,37.4,76,29.47,6.2,East,2.3,-,N/A,,Scattered Clouds,90,2012-11-01 07:00:00
9:00 AM,48.2,39.2,71,29.50,6.2,South,5.8,-,N/A,,Scattered Clouds,170,2012-11-01 08:00:00
9:30 AM,53.6,41.0,62,29.50,6.2,SE,6.9,-,N/A,,Partly Cloudy,140,2012-11-01 08:30:00
10:00 AM,55.4,41.0,58,29.50,6.2,ESE,8.1,-,N/A,,Partly Cloudy,120,2012-11-01 09:00:00
10:30 AM,55.4,41.0,58,29.50,6.2,SSW,10.4,-,N/A,,Partly Cloudy,200,2012-11-01 09:30:00
11:00 AM,59.0,41.0,51,29.53,6.2,SSW,9.2,-,N/A,,Scattered Clouds,210,2012-11-01 10:00:00
11:30 AM,57.2,41.0,55,29.53,6.2,SSW,6.9,-,N/A,,Scattered Clouds,200,2012-11-01 10:30:00
12:00 PM,59.0,42.8,55,29.53,6.2,SSW,11.5,-,N/A,,Scattered Clouds,210,2012-11-01 11:00:00
12:30 PM,60.8,42.8,52,29.53,6.2,SSW,11.5,23.0,N/A,,Scattered Clouds,210,2012-11-01 11:30:00
1:00 PM,57.2,41.0,55,29.53,6.2,SSW,12.7,-,N/A,,Mostly Cloudy,210,2012-11-01 12:00:00
1:30 PM,59.0,42.8,55,29.53,6.2,SSW,12.7,-,N/A,,Mostly Cloudy,210,2012-11-01 12:30:00
2:00 PM,59.0,42.8,55,29.53,6.2,SSW,11.5,-,N/A,,Mostly Cloudy,210,2012-11-01 13:00:00
2:30 PM,59.0,44.6,59,29.53,6.2,SSW,9.2,-,N/A,,Mostly Cloudy,200,2012-11-01 13:30:00
3:00 PM,60.8,44.6,55,29.53,6.2,SSW,11.5,-,N/A,,Mostly Cloudy,200,2012-11-01 14:00:00
3:30 PM,59.0,44.6,59,29.53,6.2,SW,11.5,-,N/A,,Mostly Cloudy,230,2012-11-01 14:30:00
4:00 PM,59.0,46.4,63,29.53,6.2,SW,6.9,-,N/A,,Mostly Cloudy,230,2012-11-01 15:00:00
4:30 PM,59.0,48.2,67,29.56,6.2,SSW,10.4,-,N/A,,Mostly Cloudy,200,2012-11-01 15:30:00
5:00 PM,57.2,46.4,67,29.56,6.2,South,4.6,-,N/A,,Mostly Cloudy,180,2012-11-01 16:00:00
5:30 PM,55.4,50.0,82,29.56,5.0,SSW,9.2,-,N/A,Rain,Light Rain,210,2012-11-01 16:30:00
6:00 PM,53.6,50.0,88,29.59,6.2,SSW,6.9,-,N/A,,Scattered Clouds,200,2012-11-01 17:00:00
6:30 PM,55.4,50.0,82,29.59,6.2,SSW,10.4,-,N/A,,Scattered Clouds,200,2012-11-01 17:30:00
6:55 PM,51.8,48.2,88,29.65,1.9,NNW,10.4,-,N/A,Rain,Rain,330,2012-11-01 17:55:00
7:00 PM,50.0,48.2,94,29.65,3.1,NNW,10.4,-,N/A,Rain,Rain,330,2012-11-01 18:00:00
7:30 PM,50.0,48.2,94,29.65,5.0,WNW,3.5,-,N/A,Rain,Light Rain,290,2012-11-01 18:30:00
8:00 PM,50.0,48.2,94,29.68,4.3,West,2.3,-,N/A,Rain,Light Rain,270,2012-11-01 19:00:00
8:30 PM,50.0,48.2,94,29.68,5.6,South,1.2,-,N/A,Rain,Light Rain,190,2012-11-01 19:30:00
9:00 PM,50.0,48.2,94,29.71,5.6,Calm,Calm,-,N/A,Rain,Light Rain,0,2012-11-01 20:00:00
9:30 PM,50.0,48.2,94,29.71,6.2,Variable,1.2,-,N/A,,Mostly Cloudy,0,2012-11-01 20:30:00
10:00 PM,50.0,48.2,94,29.71,6.2,SE,1.2,-,N/A,,Mostly Cloudy,130,2012-11-01 21:00:00
10:30 PM,50.0,48.2,94,29.74,6.2,Calm,Calm,-,N/A,,Scattered Clouds,0,2012-11-01 21:30:00
11:00 PM,48.2,46.4,93,29.74,6.2,ESE,1.2,-,N/A,,Scattered Clouds,110,2012-11-01 22:00:00
11:30 PM,48.2,48.2,100,29.74,6.2,South,1.2,-,N/A,,Scattered Clouds,170,2012-11-01 22:30:00